Change the Weather History Date:

Monday, September 3, 2012

  Actual Average Record
Temperature  
Mean Temperature 76 °F -  
Max Temperature 82 °F 85 °F 93 °F (1959)
Min Temperature 71 °F 70 °F 52 °F (1967)
Cooling Degree Days 12    
Growing Degree Days 26 (Base 50)    
Moisture  
Dew Point 75 °F    
Average Humidity 92    
Maximum Humidity 100    
Minimum Humidity 74    
Precipitation  
Precipitation 1.22 in - - ()
Sea Level Pressure  
Sea Level Pressure 30.05 in    
Wind  
Wind Speed 4 mph (SE)    
Max Wind Speed 13 mph    
Max Gust Speed 18 mph    
Visibility 6 miles    
Events Rain    
Averages and records for this station are not official NWS values.
T = Trace of Precipitation, MM = Missing Value Source: NWS Daily Summary

Daily Weather History Graph

Daily Weather History Graph

Search for Another Location

Airport or City:

Trip Planner

Search our weather history database for the weather conditions in past years. The results will help you decide how hot, cold, wet, or windy it might be!

Date:

Astronomy

Sep. 03, 2012 Rise Set
Actual Time 6:41 AM EDT 7:29 PM EDT
Civil Twilight 6:15 AM EDT 7:55 PM EDT
Nautical Twilight 5:45 AM EDT 8:25 PM EDT
Astronomical Twilight 5:14 AM EDT 8:56 PM EDT
Moon 8:59 PM EDT (9/3) 9:36 AM EDT (9/3)
Length of Visible Light 13h 39m
Length of Day
12h 48m
Waning Gibbous, 90% of the Moon is Illuminated
Sep 3
Waning Gibbous
Sep 8
Last Quarter
Sep 15
New
Sep 22
First Quarter
Sep 29
Full

Hourly Weather History & Observations

Time (EDT) Temp. Heat Index Dew Point Humidity Pressure Visibility Wind Dir Wind Speed Gust Speed Precip Events Conditions
12:56 AM 77.0 °F - 75.9 °F 96% 30.01 in 8.0 mi Calm Calm - N/A   Partly Cloudy
1:56 AM 77.0 °F - 75.9 °F 96% 30.01 in 7.0 mi Calm Calm - N/A   Clear
2:22 AM 77.0 °F - 75.2 °F 94% 30.00 in 7.0 mi Calm Calm - N/A   Mostly Cloudy
2:49 AM 78.8 °F - 77.0 °F 94% 29.99 in 6.0 mi Calm Calm - N/A   Mostly Cloudy
2:56 AM 77.0 °F - 77.0 °F 100% 29.99 in 6.0 mi SSE 3.5 mph - N/A   Mostly Cloudy
3:06 AM 78.8 °F - 78.8 °F 100% 29.99 in 7.0 mi SE 3.5 mph - N/A   Scattered Clouds
3:56 AM 79.0 °F - 78.1 °F 97% 29.99 in 6.0 mi SE 3.5 mph - N/A   Scattered Clouds
4:56 AM 78.1 °F - 78.1 °F 100% 29.99 in 6.0 mi SSE 4.6 mph - N/A   Clear
5:56 AM 79.0 °F - 78.1 °F 97% 30.01 in 6.0 mi Calm Calm - N/A   Partly Cloudy
6:56 AM 79.0 °F - 78.1 °F 97% 30.02 in 6.0 mi South 3.5 mph - N/A   Mostly Cloudy
7:56 AM 78.1 °F - 73.0 °F 84% 30.04 in 10.0 mi North 5.8 mph - N/A   Overcast
8:04 AM 78.8 °F - 73.4 °F 83% 30.04 in 10.0 mi NW 5.8 mph - N/A   Overcast
8:30 AM 78.8 °F - 75.2 °F 89% 30.03 in 4.0 mi Calm Calm - 0.01 in Rain Rain
8:56 AM 77.0 °F - 75.0 °F 94% 30.04 in 10.0 mi SE 3.5 mph - 0.02 in   Scattered Clouds
9:56 AM 79.0 °F - 75.9 °F 90% 30.05 in 10.0 mi Calm Calm - 0.00 in   Clear
10:39 AM 78.8 °F - 75.2 °F 89% 30.07 in 9.0 mi NNW 8.1 mph - N/A   Mostly Cloudy
10:56 AM 79.0 °F - 75.9 °F 90% 30.08 in 10.0 mi North 3.5 mph - N/A   Overcast
11:10 AM 78.8 °F - 75.2 °F 89% 30.08 in 1.8 mi NNW 3.5 mph - 0.08 in Rain Rain
11:22 AM 77.0 °F - 75.2 °F 94% 30.09 in 3.0 mi Variable 3.5 mph - 0.12 in Rain Rain
11:30 AM 77.0 °F - 75.2 °F 94% 30.08 in 2.5 mi WNW 4.6 mph - 0.14 in Rain Rain
11:38 AM 77.0 °F - 75.2 °F 94% 30.08 in 2.0 mi NW 10.4 mph - 0.17 in Rain Heavy Rain
11:44 AM 75.2 °F - 73.4 °F 94% 30.09 in 3.0 mi WNW 8.1 mph - 0.19 in Rain Heavy Rain
11:54 AM 75.2 °F - 75.2 °F 100% 30.09 in 2.5 mi NNW 12.7 mph - 0.21 in Rain Heavy Rain
11:56 AM 75.9 °F - 75.0 °F 97% 30.09 in 3.0 mi NNW 11.5 mph - 0.22 in Rain Rain
12:03 PM 75.2 °F - 73.4 °F 94% 30.09 in 2.0 mi NW 11.5 mph - 0.07 in Rain Heavy Rain
12:10 PM 73.4 °F - 71.6 °F 94% 30.09 in 1.8 mi North 9.2 mph - 0.10 in Rain Heavy Rain
12:15 PM 73.4 °F - 73.4 °F 100% 30.09 in 3.0 mi NNE 8.1 mph - 0.11 in Rain Rain
12:47 PM 73.4 °F - 73.4 °F 100% 30.11 in 1.8 mi SE 11.5 mph - 0.21 in Rain Heavy Rain
12:56 PM 72.0 °F - 71.1 °F 97% 30.12 in 1.0 mi ESE 10.4 mph 18.4 mph 0.37 in Rain Heavy Rain
1:01 PM 71.6 °F - 69.8 °F 94% 30.10 in 0.8 mi East 11.5 mph 18.4 mph 0.19 in Rain Heavy Rain
1:14 PM 71.6 °F - 69.8 °F 94% 30.09 in 1.0 mi ESE 10.4 mph 17.3 mph 0.57 in Rain Heavy Rain
1:19 PM 71.6 °F - 69.8 °F 94% 30.09 in 2.0 mi East 8.1 mph - 0.59 in Rain Heavy Rain
1:30 PM 73.4 °F - 71.6 °F 94% 30.08 in 5.0 mi East 6.9 mph - 0.60 in Rain Light Rain
1:56 PM 73.9 °F - 71.1 °F 91% 30.06 in 9.0 mi SE 4.6 mph - 0.61 in Rain Light Rain
2:56 PM 80.1 °F 83.8 °F 72.0 °F 76% 30.04 in 10.0 mi East 5.8 mph - 0.00 in   Clear
3:56 PM 82.0 °F 87.4 °F 73.0 °F 74% 30.01 in 10.0 mi SSE 6.9 mph - N/A   Clear
4:56 PM 82.0 °F 87.4 °F 73.0 °F 74% 30.01 in 10.0 mi South 9.2 mph - N/A   Clear
5:56 PM 80.1 °F 84.5 °F 73.9 °F 81% 30.02 in 10.0 mi South 8.1 mph - N/A   Clear
6:56 PM 80.1 °F 85.1 °F 75.0 °F 85% 30.03 in 10.0 mi South 8.1 mph - N/A   Clear
7:56 PM 80.1 °F 85.1 °F 75.0 °F 85% 30.03 in 10.0 mi South 5.8 mph - N/A   Clear
8:56 PM 79.0 °F - 75.0 °F 88% 30.04 in 10.0 mi South 4.6 mph - N/A   Clear
9:56 PM 79.0 °F - 75.9 °F 90% 30.05 in 10.0 mi South 3.5 mph - N/A   Clear
10:56 PM 79.0 °F - 77.0 °F 94% 30.06 in 10.0 mi South 4.6 mph - N/A   Partly Cloudy
11:56 PM 79.0 °F - 77.0 °F 94% 30.05 in 10.0 mi South 5.8 mph - N/A   Partly Cloudy